Regional Weather Roundup
Issued by NWS Goodland, KS

Home | Current Version | Previous Version | Graphics & Text | Print | Product List | Glossary On
Versions: 1 2 3 4 5 6 7 8 9 10 11 12 13 14 15 16 17 18 19 20 21 22 23 24 25 26 27 28 29 30 31 32 33 34 35 36 37 38 39 40 41 42 43 44 45 46 47 48 49 50
000
ASUS43 KGLD 300508
RWRGLD

GOODLAND FORECAST AREA HOURLY WEATHER ROUNDUP
NATIONAL WEATHER SERVICE GOODLAND KS
1100 PM MDT WED OCT 29 2014

...OFFICIAL OBSERVATIONS...

CITY           SKY/WX    TMP DP  RH WIND       PRES   REMARKS
GOODLAND KS    CLEAR     48  24  39 W9        30.12R
HILL CITY KS   PTCLDY    52  33  48 SW8       30.01R
IMPERIAL NEB   CLEAR     47  23  38 N12       30.09R
MCCOOK NEB     PTCLDY    53  25  33 NW14      30.02R
AKRON CO       PTCLDY    47  25  42 N12       30.16R
BURLINGTON CO  CLEAR     44  23  43 W9        30.14S
LIMON CO       CLEAR     34  20  56 N3        30.20S
$$

...UNOFFICIAL OBSERVATIONS...

CITY           SKY/WX    TMP DP  RH WIND       PRES   REMARKS
COLBY KS       CLEAR     52  30  43 NW9       30.08S
NORTON KS      CLEAR     54  28  37 W12       29.98S
SHARON SPRINGS   N/A     45  31  58 CALM        N/A
TRIBUNE KS     CLEAR     48  36  61 W8        30.14
TRENTON NEB      N/A     53  32  45 N12         N/A
$$



USA.gov is the U.S. government's official web portal to all federal, state and local government web resources and services.